[[{"header":{"parameterUnit":"m.s-1","parameterCategory":1,"la1":30.2991,"la2":30.254,"lo1":-89.0895,"lo2":-89.0444,"dy":0.0017,"dx":0.0017,"nx":28,"ny":28,"refTime":"2025-03-09T03:00:00:Z","depth":0,"parameterNumber":2,"parameterNumberName":"U-component_of_WINDS"},"data":[0,0,0,0,0,0,0,0,0,0,0,0,0,0,0,0,0,0,0,0,0,0,0,0,0,0,0,0,0,0,0,0,0,0,0,0,0,0,0,0,0,0,0,0,0,0,0,0,0,0,0,0,0,0,0,0,0,0,-3.3005,-3.3005,0,-3.3052,-3.3052,-3.3053,-3.299,-3.2988,-3.2986,-3.2983,-3.3032,-3.3036,-3.3039,0,0,0,0,0,0,0,0,0,0,0,0,0,-3.2861,-3.2864,-3.3005,-3.3005,-3.3006,-3.3051,-3.3052,-3.3053,-3.299,-3.2988,-3.2985,-3.2982,-3.3031,-3.3035,-3.3039,0,0,0,0,0,0,0,0,0,0,0,0,0,-3.2917,-3.2865,-3.3004,-3.298,-3.2978,-3.3051,-3.3052,-3.3053,-3.2991,-3.2988,-3.2984,-3.2981,-3.303,-3.3035,-3.304,-3.3139,0,0,-3.3055,-3.3058,0,0,0,0,0,0,0,0,-3.2914,-3.2922,-3.2983,-3.2982,-3.298,-3.3011,-3.3019,-3.3082,-3.2992,-3.2986,-3.2983,-3.2979,-3.3028,-3.3033,-3.3049,-3.3141,-3.3144,-3.3056,-3.3059,-3.3061,-3.3063,0,0,0,0,0,0,0,-3.291,-3.292,-3.3023,-3.2984,-3.2982,-3.2967,-3.2971,-3.3031,-3.3026,-3.2986,-3.2982,-3.2988,-3.3027,-3.3045,-3.305,-3.3144,-3.3056,-3.306,-3.3063,-3.3065,-3.3319,-3.3322,0,0,0,0,0,0,-3.2909,-3.2917,-3.3022,-3.3025,-3.2938,-3.2972,-3.2977,-3.3005,-3.3025,-3.3025,-3.2991,-3.2985,-3.3038,-3.3044,-3.3052,-3.3168,-3.3061,-3.3066,-3.3069,-3.3315,-3.332,-3.3324,0,0,0,0,0,0,-3.2906,-3.2919,-3.302,-3.297,-3.2981,-3.2978,-3.301,-3.3008,-3.3025,-3.3028,-3.3027,-3.3011,-3.3035,-3.3044,-3.3118,-3.3169,-3.3068,-3.3073,-3.3311,-3.3317,-3.3322,-3.3403,0,0,0,0,0,0,-3.2902,-3.2918,-3.2956,-3.2971,-3.2984,-3.3085,-3.3013,-3.3011,-3.3034,-3.3027,-3.3046,-3.3046,-3.3033,-3.311,-3.3123,-3.3174,-3.3077,-3.3306,-3.3313,-3.332,-3.3396,-3.3411,-3.3424,0,0,0,0,0,-3.2897,-3.2978,-3.2958,-3.2971,-3.3031,-3.3088,-3.3096,-3.3079,-3.3039,-3.3077,-3.3078,-3.3046,-3.3162,-3.3118,-3.3132,-3.3186,-3.3303,-3.3311,-3.3319,-3.339,-3.3408,-3.3423,0,0,0,0,0,0,-3.2969,-3.2979,-3.2958,-3.3045,-3.3066,-3.3078,-3.3125,-3.3099,-3.3132,-3.3124,-3.3102,-3.3107,-3.3185,-3.3193,-3.3144,-3.3282,-3.3226,-3.3237,-3.3274,-3.3292,-3.3305,-3.3302,-3.3081,0,0,0,0,0,-3.2995,-3.3041,-3.3047,-3.3123,-3.3135,-3.3128,-3.3153,-3.3138,-3.3159,-3.3167,-3.3174,-3.3196,-3.3237,-3.3265,-3.3303,-3.3397,-3.3399,-3.3441,-3.3454,-3.3466,-3.3476,-3.3525,-3.3543,-3.3351,-3.3351,-3.335,0,0,-3.305,-3.3061,-3.3091,-3.3138,-3.3153,-3.32,-3.3136,-3.3189,-3.3224,-3.3175,-3.3245,-3.3251,-3.3273,-3.3357,-3.3394,-3.3366,-3.3529,-3.3476,-3.3485,-3.3489,-3.3535,-3.3553,-3.3569,-3.3356,-3.3355,-3.3354,0,0,-3.3172,-3.3186,-3.325,-3.3266,-3.3289,-3.3284,-3.3299,-3.3314,-3.3316,-3.3385,-3.335,-3.3391,-3.3462,-3.348,-3.3498,-3.3626,-3.3597,-3.364,-3.3712,-3.376,-3.3775,-3.3788,-3.3833,-3.385,-3.365,-3.365,-3.365,0,-3.3237,-3.3307,-3.3287,-3.3342,-3.3364,-3.3322,-3.3387,-3.3403,-3.3437,-3.3453,-3.3421,-3.3509,-3.3522,-3.3608,-3.3639,-3.3656,-3.3672,-3.3637,-3.3774,-3.3788,-3.38,-3.3842,-3.3859,-3.3655,-3.3654,-3.3654,-3.3653,0,-3.3385,-3.3434,-3.3483,-3.3517,-3.3544,-3.3604,-3.3593,-3.3623,-3.3606,-3.3604,-3.3674,-3.3687,-3.3727,-3.3747,-3.3731,-3.3831,-3.3812,-3.3778,-3.372,-3.3823,-3.3863,-3.3879,-3.3662,-3.366,-3.3658,-3.3657,0,0,-3.3555,-3.3576,-3.3594,-3.3608,-3.363,-3.3667,-3.3725,-3.3763,-3.3789,-3.3814,-3.3862,-3.3923,-3.3891,-3.3911,-3.3897,-3.3939,-3.4039,-3.3899,-3.3899,-3.3924,-3.4149,-3.4174,-3.4193,-3.402,-3.4023,-3.4025,-3.4146,0,-3.3677,-3.3776,-3.376,-3.3857,-3.3901,-3.3861,-3.3911,-3.393,-3.393,-3.3967,-3.3967,-3.401,-3.3965,-3.3977,-3.4017,-3.4018,-3.4084,-3.4009,-3.4063,-3.4065,-3.4058,-3.4214,-3.4241,-3.4355,-3.4162,-3.4165,-3.4166,0,-3.3833,-3.3863,-3.3964,-3.3977,-3.3995,-3.4041,-3.4074,-3.411,-3.413,-3.4127,-3.415,-3.4127,-3.4184,-3.4126,-3.4204,-3.4154,-3.4175,-3.4179,-3.4183,-3.4187,-3.4122,-3.4221,-3.4391,-3.4408,-3.4191,-3.4189,-3.4187,0,-3.3945,-3.4011,-3.408,-3.4093,-3.4111,-3.4144,-3.4153,-3.4169,-3.4193,-3.4222,-3.4237,-3.4273,-3.4292,-3.432,-3.4307,-3.4266,-3.4388,-3.4329,-3.4386,-3.4386,-3.4413,-3.4411,-3.4587,-3.4428,-3.4428,-3.4427,-3.4427,0,-3.4083,-3.4146,-3.413,-3.4173,-3.4242,-3.4222,-3.4291,-3.4295,-3.431,-3.4352,-3.432,-3.436,-3.4341,-3.438,-3.437,-3.4436,-3.4445,-3.4444,-3.444,-3.4446,-3.4446,-3.4459,-3.445,-3.4432,-3.4431,-3.443,-3.4429,0,-3.4221,-3.4213,-3.4285,-3.4295,-3.4299,-3.435,-3.4359,-3.4398,-3.4395,-3.4448,-3.446,-3.4455,-3.4499,-3.4489,-3.4537,-3.453,-3.4612,-3.46,-3.4606,-3.4602,-3.4659,-3.4654,-3.4849,-3.4873,-3.47,-3.4701,-3.4703,0,-3.4309,-3.4356,-3.4372,-3.4397,-3.4409,-3.4451,-3.4474,-3.4457,-3.4483,-3.4509,-3.4545,-3.4585,-3.4617,-3.4688,-3.4689,-3.4725,-3.4712,-3.4778,-3.4717,-3.4721,-3.4712,-3.4708,-3.4712,-3.479,-3.4792,-3.4794,-3.4795,0,-3.4466,-3.4459,-3.4494,-3.4529,-3.4558,-3.4584,-3.4607,-3.463,-3.4614,-3.4645,-3.4689,-3.4713,-3.4761,-3.4802,-3.4835,-3.4844,-3.4817,-3.4814,-3.4829,-3.4835,-3.4836,-3.4835,-3.4637,-3.481,-3.4808,-3.4807,-3.4806,-3.4806,-3.458,-3.462,-3.4637,-3.4677,-3.4693,-3.4715,-3.4752,-3.4753,-3.4789,-3.4827,-3.4814,-3.4864,-3.4882,-3.4924,-3.4936,-3.4975,-3.495,-3.4972,-3.4977,-3.4983,-3.4989,-3.4831,-3.4981,-3.4981,-3.498,-3.498,-3.498,0,-3.4734,-3.4743,-3.478,-3.4813,-3.4845,-3.4817,-3.484,-3.4868,-3.4913,-3.4931,-3.4963,-3.5013,-3.5051,-3.5055,-3.5091,-3.5121,-3.511,-3.5131,-3.5128,-3.513,-3.501,-3.4993,-3.514,-3.514,-3.514,-3.514,-3.514,-3.514,-3.4818,-3.4883,-3.4879,-3.4951,-3.4959,-3.5008,-3.5024,-3.5043,-3.5058,-3.5115,-3.5147,-3.5149,-3.5161,-3.5198,-3.5232,-3.5232,-3.5246,-3.5273,-3.5268,-3.5155,-3.5139,-3.5124,-3.5107,-3.5276,-3.5276,-3.5385,-3.5386,-3.5387]},{"header":{"parameterUnit":"m.s-1","parameterCategory":1,"la1":30.2991,"la2":30.254,"lo1":-89.0895,"lo2":-89.0444,"dy":0.0017,"dx":0.0017,"nx":28,"ny":28,"refTime":"2025-03-09T03:00:00:Z","depth":0,"parameterNumber":3,"parameterNumberName":"V-component_of_WINDS"},"data":[0,0,0,0,0,0,0,0,0,0,0,0,0,0,0,0,0,0,0,0,0,0,0,0,0,0,0,0,0,0,0,0,0,0,0,0,0,0,0,0,0,0,0,0,0,0,0,0,0,0,0,0,0,0,0,0,0,0,-6.377,-6.3771,0,-6.3793,-6.3794,-6.3794,-6.37,-6.3697,-6.3694,-6.3692,-6.3712,-6.3716,-6.3719,0,0,0,0,0,0,0,0,0,0,0,0,0,-6.3642,-6.3645,-6.377,-6.3771,-6.3771,-6.3793,-6.3794,-6.3794,-6.37,-6.3697,-6.3694,-6.3691,-6.3711,-6.3715,-6.3719,0,0,0,0,0,0,0,0,0,0,0,0,0,-6.3685,-6.3646,-6.377,-6.3727,-6.3723,-6.3793,-6.3794,-6.3794,-6.3701,-6.3697,-6.3693,-6.3689,-6.371,-6.3715,-6.3719,-6.3831,0,0,-6.3734,-6.3736,0,0,0,0,0,0,0,0,-6.3683,-6.369,-6.3733,-6.373,-6.3726,-6.374,-6.3756,-6.3806,-6.3702,-6.3709,-6.3692,-6.3687,-6.3725,-6.3728,-6.3741,-6.3832,-6.3833,-6.3734,-6.3737,-6.3739,-6.374,0,0,0,0,0,0,0,-6.368,-6.3688,-6.3779,-6.3734,-6.373,-6.3705,-6.3707,-6.3765,-6.374,-6.3708,-6.3702,-6.3706,-6.3722,-6.3737,-6.3741,-6.3833,-6.3734,-6.3738,-6.3741,-6.3743,-6.4016,-6.4021,0,0,0,0,0,0,-6.3683,-6.3686,-6.3778,-6.378,-6.3694,-6.3711,-6.3713,-6.3739,-6.3739,-6.3735,-6.3709,-6.3701,-6.3731,-6.3736,-6.3741,-6.3872,-6.3739,-6.3743,-6.3746,-6.4012,-6.4017,-6.4022,0,0,0,0,0,0,-6.368,-6.3692,-6.3778,-6.3731,-6.374,-6.3718,-6.3748,-6.3742,-6.3757,-6.374,-6.3734,-6.373,-6.3728,-6.3735,-6.381,-6.3871,-6.3745,-6.375,-6.4007,-6.4014,-6.402,-6.4134,0,0,0,0,0,0,-6.3677,-6.3692,-6.3735,-6.3733,-6.3743,-6.3847,-6.3752,-6.3745,-6.3766,-6.3755,-6.3757,-6.3754,-6.3725,-6.3803,-6.3814,-6.3875,-6.3753,-6.4001,-6.401,-6.4018,-6.4125,-6.4144,-6.416,0,0,0,0,0,-6.3673,-6.3765,-6.3737,-6.3749,-6.3797,-6.385,-6.3856,-6.3822,-6.3771,-6.3813,-6.3802,-6.3753,-6.3863,-6.3812,-6.3823,-6.3887,-6.3997,-6.4007,-6.4017,-6.4117,-6.414,-6.416,0,0,0,0,0,0,-6.3774,-6.3764,-6.3733,-6.3828,-6.3841,-6.3835,-6.3887,-6.3848,-6.3875,-6.3864,-6.382,-6.3822,-6.3904,-6.3903,-6.3846,-6.3995,-6.3921,-6.3934,-6.3993,-6.4015,-6.4032,-6.4031,-6.3757,0,0,0,0,0,-6.3807,-6.3853,-6.3842,-6.3926,-6.3934,-6.391,-6.3932,-6.3905,-6.3916,-6.3921,-6.3915,-6.3927,-6.3964,-6.3989,-6.4022,-6.4124,-6.4123,-6.4173,-6.4191,-6.4206,-6.4218,-6.4271,-6.4293,-6.4055,-6.4055,-6.4055,0,0,-6.3876,-6.3877,-6.3908,-6.3947,-6.3953,-6.4001,-6.3915,-6.3969,-6.4003,-6.3929,-6.3999,-6.3996,-6.4006,-6.4095,-6.4134,-6.4096,-6.4283,-6.4219,-6.4231,-6.4234,-6.4284,-6.4306,-6.4326,-6.4062,-6.4061,-6.406,0,0,-6.4026,-6.4032,-6.4103,-6.4112,-6.4124,-6.4107,-6.4124,-6.4124,-6.4119,-6.4189,-6.4134,-6.4174,-6.4239,-6.4248,-6.4262,-6.4416,-6.4372,-6.4428,-6.4521,-6.4573,-6.4592,-6.4608,-6.4663,-6.4684,-6.4439,-6.444,-6.444,0,-6.411,-6.4181,-6.4144,-6.4202,-6.422,-6.4156,-6.4227,-6.4237,-6.4259,-6.4272,-6.423,-6.431,-6.4313,-6.4403,-6.4441,-6.4454,-6.4471,-6.4427,-6.4593,-6.4609,-6.4623,-6.4675,-6.4696,-6.4446,-6.4446,-6.4445,-6.4444,0,-6.4283,-6.4333,-6.4389,-6.4413,-6.4437,-6.4501,-6.4473,-6.4502,-6.4473,-6.4461,-6.4533,-6.4534,-6.4566,-6.4585,-6.4557,-6.4672,-6.4648,-6.46,-6.4525,-6.4654,-6.4701,-6.4721,-6.4456,-6.4454,-6.4452,-6.445,0,0,-6.4497,-6.4501,-6.4522,-6.4532,-6.454,-6.4577,-6.4638,-6.467,-6.4696,-6.4713,-6.4763,-6.4819,-6.4775,-6.479,-6.4762,-6.4809,-6.4931,-6.4755,-6.4754,-6.4787,-6.5057,-6.5093,-6.5116,-6.4902,-6.4905,-6.4908,-6.5056,0,-6.4644,-6.475,-6.4719,-6.4824,-6.4869,-6.4809,-6.4862,-6.4873,-6.4863,-6.4898,-6.4886,-6.4927,-6.4866,-6.4875,-6.4918,-6.4907,-6.4984,-6.4896,-6.4947,-6.4949,-6.4946,-6.5141,-6.5179,-6.5318,-6.5074,-6.5077,-6.508,0,-6.483,-6.4856,-6.4967,-6.4968,-6.4985,-6.5034,-6.5061,-6.5096,-6.5106,-6.5096,-6.5113,-6.5076,-6.5135,-6.506,-6.514,-6.5081,-6.51,-6.5097,-6.5102,-6.5105,-6.5022,-6.5149,-6.5362,-6.5383,-6.5109,-6.5106,-6.5104,0,-6.4975,-6.5037,-6.5111,-6.5122,-6.5125,-6.516,-6.5163,-6.5169,-6.5191,-6.5214,-6.5228,-6.5257,-6.5274,-6.5297,-6.5268,-6.5217,-6.5353,-6.5276,-6.5345,-6.5346,-6.5376,-6.5374,-6.5594,-6.5389,-6.5389,-6.5388,-6.5388,0,-6.5143,-6.5213,-6.5176,-6.5222,-6.5298,-6.5261,-6.5337,-6.5333,-6.534,-6.5382,-6.5332,-6.5373,-6.5333,-6.537,-6.5348,-6.5418,-6.5425,-6.5418,-6.5411,-6.5422,-6.5423,-6.5434,-6.5423,-6.5394,-6.5393,-6.5392,-6.5391,0,-6.5317,-6.5296,-6.5373,-6.537,-6.5371,-6.5427,-6.5424,-6.5465,-6.5452,-6.5507,-6.5517,-6.5496,-6.5537,-6.5511,-6.5553,-6.5538,-6.5629,-6.5609,-6.5626,-6.562,-6.5691,-6.5685,-6.5925,-6.5954,-6.5731,-6.5733,-6.5735,0,-6.5426,-6.5478,-6.5481,-6.5507,-6.5513,-6.5555,-6.5577,-6.5543,-6.5567,-6.5583,-6.5623,-6.566,-6.5688,-6.5757,-6.5744,-6.5776,-6.5756,-6.5838,-6.576,-6.577,-6.5756,-6.5754,-6.5758,-6.5853,-6.5856,-6.5858,-6.586,0,-6.562,-6.5607,-6.5641,-6.5672,-6.57,-6.5722,-6.574,-6.5764,-6.5729,-6.5759,-6.5802,-6.5824,-6.5866,-6.5904,-6.593,-6.5931,-6.589,-6.5885,-6.5902,-6.5914,-6.5922,-6.5918,-6.5668,-6.5879,-6.5877,-6.5876,-6.5875,-6.5874,-6.5764,-6.5808,-6.5817,-6.5857,-6.5867,-6.5885,-6.5924,-6.5916,-6.5951,-6.5984,-6.5961,-6.6011,-6.6019,-6.6051,-6.6058,-6.6096,-6.6062,-6.6088,-6.6094,-6.6101,-6.6111,-6.5916,-6.61,-6.61,-6.6099,-6.6099,-6.6098,0,-6.5955,-6.5959,-6.5996,-6.6023,-6.6054,-6.6014,-6.6031,-6.606,-6.6105,-6.6117,-6.6146,-6.6194,-6.623,-6.6221,-6.6253,-6.6285,-6.6267,-6.6294,-6.6291,-6.6292,-6.6139,-6.612,-6.6309,-6.6309,-6.6309,-6.6309,-6.6309,-6.6308,-6.6059,-6.6131,-6.6119,-6.6195,-6.6197,-6.6247,-6.626,-6.6276,-6.6286,-6.6343,-6.6373,-6.6367,-6.637,-6.6402,-6.6433,-6.6429,-6.6443,-6.6478,-6.6467,-6.6324,-6.6303,-6.6283,-6.6266,-6.6481,-6.6482,-6.6617,-6.6619,-6.662]}]]